GFSCGP_925_thetae_057.txt.gz
Theta_e
308 307 308 309 313 314 315 316 317 318 319 320 321 323 323 323 322 323 324 325 326 325 325 323 323 321 322 322 322 322 321 324 323 336 338 339 340 339 339 339 340 339 337 338
307 307 307 309 310 312 314 315 315 316 316 318 320 322 322 321 321 322 323 324 324 324 324 325 324 324 324 323 321 321 321 325 325 336 339 339 339 338 339 340 340 339 338 338
308 307 307 308 309 311 312 314 315 316 316 316 317 319 320 319 319 319 319 320 320 322 322 325 325 324 324 324 320 322 322 327 327 335 337 337 338 338 339 340 340 340 339 338
307 307 305 307 309 310 313 312 313 314 315 318 316 320 320 320 320 319 319 319 320 319 320 322 324 325 324 323 323 321 325 331 333 335 337 339 340 341 341 340 340 340 339 339
307 306 305 307 308 309 310 310 312 313 315 316 316 317 318 318 318 318 319 319 318 319 321 320 320 322 320 321 322 326 335 339 338 338 339 340 341 339 340 340 341 341 339 339
309 307 305 305 307 308 309 310 311 311 313 316 315 316 317 317 318 317 317 317 318 318 318 318 318 318 319 320 329 337 340 341 339 339 339 340 340 338 339 338 338 337 336 336
310 310 308 306 306 306 307 310 312 313 313 314 313 315 316 318 317 316 316 317 318 319 319 319 320 321 321 329 336 340 341 341 339 339 338 339 338 337 338 337 336 336 336 336
313 314 310 309 307 306 307 309 310 311 312 312 312 314 315 316 316 316 316 317 318 319 321 322 322 320 323 330 337 340 342 341 339 338 338 338 336 337 337 337 336 336 336 337
314 315 311 311 310 308 308 307 309 309 311 312 312 313 313 314 316 316 316 317 318 321 325 329 330 323 328 336 340 342 342 341 340 338 338 337 337 336 336 335 336 336 335 335
312 314 311 311 310 308 309 309 308 308 310 310 312 313 314 316 314 316 316 317 319 325 331 334 332 327 334 338 341 341 341 340 338 337 336 335 336 336 335 335 334 334 334 333
311 312 311 310 310 311 310 310 310 309 310 311 311 313 316 315 316 316 316 316 317 322 332 336 335 335 337 339 341 341 339 337 336 336 335 335 335 335 335 335 335 335 334 334
310 312 313 311 309 309 309 310 309 312 311 310 311 312 314 315 314 316 316 316 317 320 329 336 334 333 338 340 341 340 338 337 336 335 335 335 334 334 334 334 334 334 335 334
310 310 310 308 313 311 311 310 310 310 312 314 312 311 313 314 315 316 316 316 317 320 326 336 334 335 336 339 340 338 337 336 335 335 334 334 334 334 334 334 334 334 334 333
310 311 311 311 310 311 312 311 310 312 314 312 313 313 313 314 315 316 316 317 318 319 326 336 336 335 335 339 338 337 336 335 334 333 332 333 333 333 333 334 334 334 333 332
310 311 310 309 310 310 311 311 312 312 311 313 311 312 313 315 315 315 316 318 318 320 324 332 337 336 338 339 337 336 335 334 332 331 332 333 333 333 333 334 334 333 332 332
310 312 310 310 308 308 310 310 310 312 312 312 311 312 311 312 312 313 316 319 320 322 327 332 338 338 339 339 337 336 334 333 331 332 333 333 332 333 333 333 333 333 333 332
311 312 311 309 307 311 312 311 311 312 312 311 312 311 311 311 312 314 320 321 322 324 328 333 337 340 340 338 337 336 334 332 331 332 333 332 332 332 333 333 333 333 333 331
310 311 310 309 310 313 311 316 315 317 316 317 317 312 312 312 314 319 320 320 322 326 330 334 337 340 339 337 336 336 333 332 330 332 332 332 332 332 332 333 333 332 332 330
308 310 311 312 314 312 311 312 313 314 315 317 316 314 314 315 319 319 318 324 324 325 329 334 336 338 338 337 336 335 333 330 331 332 332 332 331 332 332 333 333 331 331 331
309 306 312 314 315 316 317 312 308 309 317 317 318 318 320 320 320 320 325 321 322 323 330 335 336 338 338 336 335 334 332 331 331 332 332 332 330 332 332 332 332 331 331 330
316 314 312 313 316 315 313 311 307 317 318 310 316 316 318 320 319 320 320 321 322 325 331 336 336 338 337 336 335 334 332 331 331 332 332 332 331 332 332 332 331 331 330 329
316 317 317 315 318 319 311 310 312 310 309 312 315 315 315 318 318 320 321 322 323 329 334 335 337 337 336 335 336 333 332 331 332 332 332 332 332 331 331 331 331 331 330 329
315 314 315 312 315 311 311 313 309 309 312 314 312 313 315 316 319 319 321 322 325 330 335 335 337 336 334 335 336 334 332 332 332 332 333 332 332 331 331 330 331 330 330 329
311 312 314 313 313 312 312 312 312 312 313 313 312 313 314 316 318 318 320 324 330 333 336 336 336 336 334 335 336 335 332 331 332 333 333 333 332 331 331 331 329 329 330 328
312 312 312 312 312 312 311 311 312 312 312 313 312 313 315 316 317 317 318 322 332 335 336 334 335 335 334 334 334 334 332 331 332 333 333 333 333 332 331 331 330 329 330 328
312 313 313 313 312 313 312 312 311 312 313 313 312 313 315 316 317 316 319 328 334 335 334 333 333 334 333 333 333 331 330 331 332 333 333 333 332 332 331 327 324 327 328 328

GFSCGP_925_thetae_060.txt.gz
Theta_e
311 312 311 310 310 310 313 316 319 319 319 322 324 324 325 325 325 327 328 329 329 329 329 328 327 327 327 328 330 332 334 338 337 338 340 341 342 343 343 344 345 344 344 344
310 311 310 310 310 309 311 314 317 319 318 320 322 324 324 325 325 326 327 328 328 328 329 328 327 326 326 329 330 332 334 336 339 339 341 342 343 344 344 344 345 345 344 344
310 310 310 309 309 310 311 313 315 317 318 320 321 323 324 324 325 325 325 326 325 326 326 326 326 325 326 327 328 331 333 336 340 339 343 345 345 343 344 344 345 345 345 344
310 309 310 310 309 309 310 310 311 314 318 320 320 323 323 323 324 324 325 325 325 325 325 325 325 326 324 325 325 326 331 337 340 342 341 343 342 343 343 344 345 345 344 343
313 311 309 309 308 309 309 310 311 314 316 318 318 322 322 322 323 323 324 324 323 323 323 323 323 323 322 322 323 325 329 337 341 343 340 343 342 344 345 345 347 345 345 344
313 312 311 310 309 308 310 310 311 314 316 320 318 319 320 320 321 322 322 321 321 321 321 322 323 322 322 321 322 324 331 341 344 344 343 345 344 345 345 346 347 346 346 345
313 313 312 311 309 309 309 311 313 315 317 318 317 319 320 321 320 320 321 320 320 321 322 323 324 326 324 324 325 332 339 344 345 345 345 346 347 347 348 347 345 344 341 340
316 314 312 312 311 311 309 310 314 315 316 315 315 317 318 318 319 320 319 320 321 324 326 328 331 333 326 325 329 337 342 345 346 345 346 347 347 346 345 342 342 340 338 338
314 314 312 311 311 311 310 310 310 311 311 314 315 316 316 318 319 319 319 319 321 324 330 335 337 336 331 327 333 338 343 345 345 345 345 345 344 343 342 342 341 339 339 340
311 315 311 312 312 311 312 310 311 310 315 314 314 316 316 317 317 318 319 320 321 323 326 332 339 337 332 336 340 343 346 346 345 345 345 344 343 342 342 341 339 339 339 338
309 311 312 312 312 313 314 310 311 313 310 310 314 315 317 318 319 320 320 320 320 321 324 331 340 338 338 340 343 346 346 346 345 344 342 341 340 340 340 340 339 339 339 338
309 311 312 311 310 310 311 314 315 317 315 312 313 318 318 319 320 320 319 320 320 321 322 330 340 337 341 343 345 346 345 344 343 341 340 340 339 339 339 338 338 338 336 336
311 311 313 310 313 312 312 310 311 313 314 319 314 315 318 318 317 317 318 319 320 320 321 325 337 337 341 343 344 344 343 342 340 339 339 338 337 337 336 336 336 336 336 335
311 313 312 314 311 311 311 312 312 312 315 313 314 315 316 317 316 317 318 319 318 319 320 323 333 338 339 342 343 343 341 340 338 338 337 336 333 334 336 336 336 335 335 334
311 314 312 310 310 309 310 310 311 313 312 313 313 313 314 315 316 316 317 316 315 318 320 322 330 340 341 342 342 341 340 338 337 336 333 333 335 336 336 336 336 335 334 334
312 313 312 312 310 310 310 310 310 310 310 312 312 313 312 313 313 313 314 314 316 320 320 322 328 340 341 341 341 340 338 337 335 333 332 333 334 335 335 335 335 335 334 333
313 313 313 314 310 309 311 311 311 311 311 312 313 312 313 313 313 314 314 314 316 320 321 323 330 338 341 342 339 338 337 336 334 331 332 333 334 334 334 334 334 334 334 333
312 312 313 313 312 314 314 315 315 315 316 316 316 316 316 316 315 314 314 316 319 320 324 330 334 340 340 340 339 338 337 334 331 331 331 332 332 332 333 334 334 334 334 333
309 312 315 316 317 315 313 314 315 315 315 314 315 316 318 317 317 315 316 318 322 326 328 331 334 339 341 340 339 337 336 331 329 331 331 330 331 332 333 334 334 334 334 333
312 307 313 316 318 319 321 314 311 308 315 313 314 319 320 321 321 319 321 324 326 327 329 331 336 339 341 340 338 337 334 329 330 331 331 330 329 333 333 334 334 334 334 334
316 315 314 316 318 317 315 313 309 318 318 311 312 314 318 320 320 321 321 322 324 326 329 332 337 339 340 339 338 336 332 330 330 331 331 329 331 331 332 333 334 334 333 332
317 317 320 319 321 320 313 313 314 314 312 312 312 315 315 316 318 319 322 324 326 329 331 335 338 339 340 339 337 335 331 329 331 331 329 330 332 332 333 334 333 333 333 332
315 314 316 318 317 314 313 313 313 312 313 313 315 314 316 315 317 319 324 325 328 331 334 336 338 340 340 339 337 334 330 329 331 331 329 331 333 333 334 334 333 333 332 331
312 312 314 314 312 312 313 313 312 312 313 313 313 314 315 316 318 321 323 325 328 331 337 337 338 341 340 338 337 333 329 330 332 331 330 332 333 334 334 334 333 331 332 331
315 313 313 313 310 312 312 311 312 311 311 313 313 314 314 314 318 321 323 324 326 330 337 338 340 341 340 338 337 331 329 331 332 332 330 332 334 334 335 334 331 331 331 330
313 313 315 315 311 312 312 312 311 309 311 314 312 313 313 316 319 318 320 322 326 336 337 339 338 340 339 338 335 329 329 330 332 332 331 332 333 335 334 333 331 330 330 327

GFSCGP_925_thetae_063.txt.gz
Theta_e
313 312 314 314 314 313 313 312 313 316 318 320 321 323 324 326 326 327 329 330 331 331 331 330 331 331 332 332 334 334 335 338 340 340 339 338 342 344 345 344 345 347 348 347
313 313 312 313 313 312 312 313 314 314 315 319 322 322 323 325 326 326 327 329 330 331 331 332 331 332 332 332 332 335 338 339 343 340 339 340 342 344 345 345 347 348 348 347
313 312 312 312 312 312 312 313 313 313 314 316 319 321 323 323 324 326 326 327 329 330 330 331 331 332 330 330 332 334 337 339 340 341 340 345 347 347 347 347 348 348 347 347
313 312 313 310 312 312 312 312 311 312 314 316 318 322 323 323 324 324 325 326 328 329 329 330 329 333 330 329 329 332 334 337 339 344 339 346 346 347 346 347 348 348 347 347
312 313 313 314 311 311 311 311 311 311 313 315 315 319 321 323 323 325 325 326 327 327 328 328 328 328 326 327 328 330 331 334 338 344 341 345 347 345 346 346 349 348 347 347
312 314 314 313 313 311 311 310 311 311 312 315 315 317 320 322 324 324 325 326 326 326 326 326 326 326 326 324 325 327 330 334 339 344 347 347 347 348 346 348 349 348 347 346
312 312 314 312 314 314 311 312 311 313 315 314 315 318 319 320 321 322 322 324 324 324 324 324 325 325 326 325 326 326 329 333 341 347 347 347 348 349 351 351 349 348 347 347
314 315 313 313 313 314 313 312 312 316 315 315 316 317 319 319 320 322 322 323 323 323 324 325 326 328 330 329 327 326 329 337 346 347 348 349 351 349 350 350 348 347 345 344
313 313 311 312 314 313 314 314 313 313 313 317 318 317 319 320 320 321 322 322 322 324 327 329 332 335 335 330 327 329 337 342 347 348 349 350 351 350 349 348 346 343 341 342
311 312 311 313 315 312 313 313 317 315 315 313 317 317 318 319 320 321 322 322 323 324 325 328 335 340 338 332 329 335 340 345 347 349 350 350 349 347 347 346 343 341 340 339
309 310 311 311 315 315 314 315 314 314 316 315 318 318 318 319 320 322 323 323 323 323 324 329 340 340 339 336 338 340 344 347 348 348 348 348 347 346 345 343 342 341 340 338
311 314 311 310 310 312 312 314 316 321 320 315 315 316 317 321 321 321 322 322 322 323 323 326 340 339 341 341 344 346 346 347 347 348 347 345 344 343 342 341 340 339 338 337
312 313 316 312 311 315 315 315 315 315 317 318 321 321 319 323 323 322 322 321 321 321 322 325 339 340 343 344 345 346 346 346 346 344 343 343 342 341 340 338 338 337 336 336
311 314 313 317 314 314 315 314 312 314 317 316 317 315 318 318 321 320 319 319 320 319 321 324 331 342 344 343 344 345 345 344 343 342 341 341 340 338 337 336 337 337 336 336
313 316 313 313 312 312 311 310 310 310 312 312 314 313 315 317 316 319 317 317 317 318 321 323 327 343 344 344 343 343 343 342 341 340 339 338 336 336 336 337 336 335 335 334
313 316 314 313 312 311 310 310 310 310 311 311 312 312 312 313 315 315 315 316 316 317 320 322 325 342 343 342 343 342 341 340 339 338 335 335 335 336 336 337 336 335 334 334
313 314 315 315 312 314 313 312 316 316 312 313 313 313 313 314 314 315 315 316 317 317 321 322 327 335 343 342 342 341 340 339 337 335 334 334 334 335 335 335 335 334 334 333
314 316 316 315 316 317 312 315 313 316 315 316 317 317 316 316 316 316 317 316 317 319 321 327 331 336 342 342 340 340 339 337 334 333 333 333 333 334 334 334 335 334 337 336
315 313 317 319 318 315 314 316 314 316 316 314 317 318 319 319 321 320 318 316 317 322 327 328 331 337 341 341 339 340 338 335 333 332 332 332 332 333 333 333 334 337 337 336
316 311 315 316 319 320 318 315 313 311 315 314 313 315 317 317 324 323 324 324 324 324 326 329 332 333 342 341 341 339 337 333 332 332 331 332 332 332 333 335 336 337 336 335
318 315 316 317 319 318 315 314 312 318 321 314 314 315 315 319 320 320 320 322 322 324 327 329 333 335 343 341 341 339 335 332 332 331 331 330 331 332 334 335 336 336 335 334
319 318 317 317 320 321 314 315 317 314 315 314 315 315 317 316 317 318 319 320 323 326 329 331 335 338 342 341 341 338 334 331 331 331 330 330 332 331 331 332 335 335 335 334
317 315 319 320 319 316 315 315 315 314 314 313 314 314 315 315 316 318 319 321 325 327 330 333 337 341 341 340 340 337 332 331 331 331 330 330 331 333 334 333 334 334 334 333
314 314 317 316 315 314 312 313 313 314 313 312 311 313 314 314 315 317 318 321 325 327 331 332 338 342 341 340 339 335 331 331 331 331 331 331 333 334 333 334 332 334 334 333
316 315 316 316 314 313 311 311 312 312 311 310 312 313 314 315 317 317 320 324 326 329 332 333 339 343 341 341 337 334 329 331 331 330 331 331 334 335 334 331 331 334 333 332
317 317 317 318 315 313 312 311 312 313 312 312 313 314 313 314 316 317 323 324 324 326 332 335 340 341 341 339 336 332 329 331 332 331 331 332 333 334 335 334 331 332 330 328

GFSCGP_925_thetae_069.txt.gz
Theta_e
311 310 310 310 311 312 312 312 312 313 314 312 312 313 313 314 313 314 319 321 325 326 326 326 327 328 332 335 335 337 336 342 342 343 346 348 347 344 341 340 340 345 345 349
309 310 312 313 313 313 312 312 312 313 313 313 312 312 312 313 313 313 314 318 322 325 325 325 326 327 329 337 337 335 335 336 337 336 337 338 339 338 336 336 343 344 346 347
310 311 312 312 311 312 312 311 311 312 312 312 312 312 312 312 313 314 314 315 320 324 326 326 326 326 330 338 338 336 335 334 334 334 333 336 343 340 343 343 345 345 347 349
309 310 312 312 312 312 313 314 315 314 311 311 312 312 311 312 312 312 313 315 316 320 323 324 325 326 336 341 338 335 335 334 333 332 331 333 341 344 341 342 347 348 349 348
308 308 310 311 312 315 315 314 314 314 312 309 310 309 310 310 311 312 312 314 316 318 321 323 323 324 329 337 337 335 333 333 333 330 331 334 344 343 344 347 349 349 349 349
309 309 313 315 314 314 313 313 313 311 309 310 309 310 310 309 310 311 312 313 314 317 318 322 321 324 326 332 336 333 332 331 330 331 334 335 338 341 346 351 350 349 349 348
310 309 314 314 313 312 311 313 316 315 313 313 311 311 310 311 313 314 314 314 314 314 315 318 323 322 324 328 332 333 331 331 331 331 333 335 336 339 345 349 351 350 349 348
310 310 309 314 313 311 312 314 319 318 313 312 312 314 312 312 313 314 314 314 314 315 315 318 321 322 321 326 328 330 331 330 331 333 336 338 342 341 347 351 351 349 348 347
311 312 311 310 310 310 310 311 310 312 311 313 312 313 313 315 318 319 318 317 317 316 317 323 320 319 320 323 325 326 326 329 330 335 341 344 342 344 347 352 350 349 348 346
311 310 310 310 311 311 311 310 312 313 316 316 313 312 313 319 319 317 317 315 316 317 319 322 322 325 335 338 338 337 334 334 337 342 346 348 343 348 351 352 350 349 347 345
310 312 313 310 311 312 313 313 316 317 319 320 317 314 320 318 317 317 315 315 316 318 319 320 321 333 337 337 337 338 335 338 341 344 349 349 349 349 354 350 351 349 347 345
312 311 311 311 310 314 315 316 314 318 319 318 318 317 317 316 315 316 315 315 318 320 318 320 336 337 336 337 337 338 338 340 344 349 350 349 351 354 352 351 348 349 349 347
313 312 314 311 311 312 313 312 312 312 312 316 318 315 313 315 315 316 317 317 318 319 318 317 322 336 334 335 337 339 348 349 349 350 351 352 350 351 348 344 343 344 343 341
313 313 313 314 313 312 314 313 312 313 315 314 315 314 316 317 316 316 315 315 316 316 316 316 318 332 336 340 339 346 347 349 349 348 349 348 346 346 344 341 339 339 337 337
313 315 315 314 313 313 312 313 313 314 313 315 316 317 317 316 315 316 316 316 316 316 315 316 318 324 337 340 341 345 347 347 347 347 346 345 345 343 341 339 338 338 337 336
313 317 315 316 313 314 315 314 314 313 313 314 314 316 315 316 316 316 316 317 316 316 318 315 330 332 336 340 342 344 346 346 345 345 344 344 343 341 340 338 338 337 335 335
315 317 314 314 313 314 315 318 317 315 314 314 314 315 314 314 315 316 317 317 322 323 322 318 334 334 335 337 340 343 344 344 344 343 342 340 339 338 336 336 336 334 333 333
316 316 315 316 315 318 317 315 315 315 314 313 314 314 313 313 314 314 314 320 321 319 320 321 328 330 334 332 338 343 342 342 341 340 338 337 338 338 338 335 334 333 333 332
316 315 317 314 313 315 315 316 316 316 314 313 314 314 314 314 315 315 319 317 317 317 318 319 321 328 332 330 332 341 340 338 337 336 336 337 338 338 336 334 333 335 334 333
311 309 313 316 317 312 314 314 313 312 312 312 313 314 315 313 316 316 314 314 316 316 317 318 319 323 331 333 335 338 337 336 335 335 335 336 337 337 335 334 334 334 333 332
318 315 315 314 315 315 316 315 311 313 309 313 313 312 314 314 313 312 312 314 314 315 316 317 320 323 330 334 338 338 336 335 334 334 334 335 335 335 335 334 334 335 335 334
314 317 314 317 314 315 315 314 318 313 313 313 313 312 312 311 311 311 312 313 314 314 315 318 319 322 330 333 337 339 337 334 333 333 336 336 335 334 334 335 335 335 335 334
313 317 318 317 312 316 316 315 313 312 313 313 314 312 313 310 311 311 311 313 313 314 315 317 319 321 330 331 335 339 338 333 332 335 335 335 335 336 336 335 336 336 334 333
315 313 314 315 316 317 316 315 315 314 313 311 310 310 310 311 312 312 311 312 313 314 315 317 320 326 332 333 336 339 339 331 334 334 334 335 335 336 335 335 334 334 334 333
312 313 317 315 316 315 314 314 313 311 311 311 311 311 312 312 312 313 312 313 314 313 315 317 318 329 331 331 334 340 336 333 333 333 333 333 334 334 334 335 335 334 333 332
313 316 317 319 316 315 315 312 311 312 311 310 310 309 310 311 312 313 313 313 314 314 315 317 323 326 329 331 335 340 333 333 333 333 333 333 331 329 329 330 327 331 333 332

GFSCGP_925_thetae_072.txt.gz
Theta_e
309 308 308 307 307 310 311 311 311 311 311 311 310 310 311 311 310 310 311 312 312 314 318 325 325 326 326 326 327 334 345 343 343 342 343 342 342 340 339 339 341 346 346 346
307 308 310 310 311 311 311 311 310 310 311 311 310 310 311 311 310 310 310 310 311 312 313 318 323 324 325 325 327 331 344 343 342 343 343 346 344 345 342 342 343 341 341 345
308 308 310 310 311 311 311 311 313 313 313 310 310 310 310 311 310 310 310 309 310 310 312 315 321 323 323 324 327 331 337 346 346 345 347 346 343 340 340 339 339 339 342 345
307 308 308 310 311 312 313 314 314 314 314 312 310 311 309 309 309 309 309 308 308 309 311 312 315 320 322 324 325 329 335 342 347 347 342 340 337 339 337 336 337 339 343 345
307 308 307 309 314 314 314 313 312 313 313 310 310 307 310 308 309 309 309 308 309 309 310 311 312 316 320 325 328 332 334 335 340 338 336 335 335 333 331 335 338 340 345 347
307 308 312 313 313 312 312 312 311 310 308 309 309 308 310 308 308 308 311 312 314 315 315 313 313 313 315 321 327 332 337 337 336 335 335 334 332 331 339 343 342 346 348 349
308 308 313 313 312 309 309 311 313 313 311 313 310 310 310 310 310 316 317 316 315 314 314 314 314 314 313 319 329 336 337 336 335 335 334 332 330 330 337 343 344 349 349 348
308 308 310 312 311 310 309 310 312 317 317 315 311 312 310 315 316 316 315 314 314 313 313 315 316 316 317 315 323 332 334 333 334 334 332 331 330 333 337 340 344 349 349 348
310 311 309 309 309 309 309 309 309 313 311 312 310 310 310 315 316 315 315 314 312 313 313 315 318 316 318 318 320 329 331 331 331 331 330 333 333 338 337 337 343 349 348 348
309 310 309 310 309 309 310 310 311 310 315 317 313 312 312 317 317 316 314 313 313 313 315 317 318 317 319 319 320 324 328 329 329 330 331 333 336 339 339 342 348 349 349 348
310 310 311 309 309 309 311 312 313 311 312 313 317 313 316 317 315 315 314 315 314 315 316 318 317 315 315 330 331 332 328 326 327 329 331 337 341 341 342 346 348 349 348 347
311 310 311 311 310 309 313 313 314 309 312 315 315 313 313 314 313 314 315 314 313 314 316 318 317 315 315 327 334 334 334 333 335 336 340 343 344 345 349 349 348 348 348 345
312 310 313 309 308 309 312 311 311 311 311 315 315 312 315 314 314 315 314 315 314 315 318 319 317 316 316 321 333 334 335 335 338 344 345 347 346 347 351 350 348 348 347 345
313 310 311 311 311 309 313 313 312 311 316 314 313 313 315 316 316 315 317 316 316 317 318 317 316 316 316 331 338 337 340 341 344 346 348 348 349 350 349 349 348 347 346 345
311 312 313 313 314 314 314 314 314 314 312 314 314 317 315 315 315 315 317 318 317 319 319 317 319 319 328 330 333 338 345 346 347 347 348 346 346 345 346 346 346 345 345 343
309 312 315 316 314 313 313 313 314 314 314 313 313 313 313 312 312 314 316 318 319 319 319 319 318 327 331 331 328 332 341 345 346 345 344 343 341 340 341 341 340 338 338 338
310 310 313 315 313 314 316 316 317 315 314 313 315 312 312 312 313 313 313 314 315 317 319 317 317 319 326 330 329 334 335 343 344 343 342 341 340 338 338 338 337 336 335 335
311 314 315 316 312 313 314 315 315 315 313 313 313 313 312 313 313 313 313 314 316 315 315 316 316 316 319 329 329 330 329 337 342 342 340 340 338 337 337 337 335 334 334 333
311 312 316 317 308 312 313 316 315 316 314 313 312 312 313 313 313 312 313 315 311 311 313 314 315 316 321 331 329 328 328 336 341 340 339 338 337 336 336 335 333 333 332 332
311 312 316 315 315 311 307 313 312 311 315 311 311 312 312 312 313 310 309 310 310 310 311 313 314 316 318 328 331 329 329 338 339 338 337 337 336 336 334 333 332 333 332 332
315 314 313 316 314 314 312 315 312 312 310 311 310 311 310 312 311 310 310 310 310 310 312 313 313 316 318 326 330 330 328 337 337 336 336 337 336 336 333 333 333 333 332 332
314 313 314 314 315 312 313 312 316 312 311 312 311 311 310 311 311 311 310 310 310 310 311 312 313 315 318 324 329 330 333 334 335 334 335 336 336 335 333 333 333 333 332 332
313 313 317 316 310 308 312 314 313 313 313 312 312 311 311 311 311 311 310 310 310 310 310 312 313 315 318 327 330 332 331 334 333 334 335 335 336 335 333 333 334 333 333 331
312 310 311 311 313 314 313 314 312 313 312 312 310 309 309 310 310 310 310 310 310 310 311 312 313 316 317 326 329 328 333 334 334 334 335 334 334 334 334 334 334 333 331 330
308 308 312 313 314 314 314 313 312 311 309 309 309 309 310 310 309 309 311 311 311 311 312 313 313 315 319 325 328 333 335 333 333 333 334 333 334 334 334 333 333 333 332 332
309 312 313 313 313 315 315 313 311 311 309 308 308 308 308 309 310 310 311 311 311 311 312 313 314 316 320 325 329 333 334 332 332 332 332 330 330 331 331 329 328 333 332 332

GFSCGP_925_thetae_075.txt.gz
Theta_e
307 307 307 307 306 308 309 310 309 309 309 309 308 309 309 309 309 309 309 309 309 310 311 311 312 314 315 318 323 325 327 328 338 342 341 341 341 340 340 340 339 340 343 345
305 307 308 308 308 308 309 310 310 310 312 312 310 311 309 309 309 309 309 309 308 308 309 309 311 312 313 315 318 322 326 328 333 343 342 342 342 342 341 342 343 343 341 342
306 307 308 310 310 310 310 313 314 313 313 311 310 312 311 309 309 309 308 308 307 307 307 307 309 310 311 314 315 318 323 327 329 337 343 343 343 343 344 343 340 338 343 344
307 307 308 307 309 312 312 313 312 312 312 311 311 311 310 309 308 308 307 306 304 305 309 312 313 310 311 312 312 314 318 326 330 338 344 344 342 343 343 342 339 341 337 337
307 307 307 307 310 313 310 312 311 312 312 311 310 308 309 309 310 308 306 312 312 313 313 313 313 313 314 315 313 313 316 325 329 342 344 344 342 342 341 340 337 337 338 339
306 306 308 310 312 311 311 311 308 309 307 310 309 309 308 307 308 308 314 315 314 313 312 312 312 313 314 315 316 315 316 322 329 338 345 343 341 340 337 336 336 336 339 341
307 307 312 311 311 308 307 306 308 309 311 312 309 311 309 308 312 314 316 314 313 312 310 310 311 311 314 316 317 316 316 324 330 334 340 342 341 340 337 334 333 339 343 346
307 307 309 310 310 308 308 307 308 312 313 309 309 312 309 309 314 314 315 313 313 311 310 310 311 312 315 316 316 316 317 321 329 334 335 339 339 337 334 332 333 337 338 343
309 310 309 308 308 307 308 308 306 310 309 310 309 309 308 309 314 314 313 312 312 312 312 312 313 314 316 316 314 314 319 318 328 333 334 336 337 335 332 331 334 336 338 343
308 311 309 309 308 308 310 309 310 306 313 314 311 310 311 310 311 314 312 312 313 313 311 311 312 313 316 314 314 314 323 318 325 331 333 334 335 334 332 333 336 338 342 346
309 308 310 309 308 308 308 310 311 307 308 308 313 311 309 312 312 313 312 313 312 311 312 313 314 315 315 315 315 315 322 320 325 329 330 332 333 334 334 335 336 339 343 347
311 309 311 311 308 309 308 310 310 308 310 312 312 313 309 312 312 312 312 313 312 312 313 314 315 316 316 317 318 318 325 325 324 328 329 331 332 335 336 338 338 342 346 347
310 309 312 309 307 307 311 312 311 309 309 315 315 312 312 312 313 313 313 313 314 314 313 315 316 318 319 320 321 330 334 333 329 326 329 331 335 337 339 341 342 346 347 346
312 308 312 311 309 307 311 312 311 313 316 313 313 312 311 311 312 313 314 313 314 315 315 316 317 318 318 320 328 328 333 337 334 337 337 338 339 340 342 344 345 346 346 346
309 311 310 311 312 312 313 314 314 314 313 315 313 312 311 311 312 313 312 314 316 319 316 318 319 318 317 318 325 328 334 338 339 343 343 343 344 345 346 346 346 345 344 344
307 310 311 314 314 314 314 313 313 312 312 313 313 313 310 310 310 311 312 313 314 315 316 318 316 317 317 318 323 329 333 342 345 344 343 344 344 344 345 345 345 344 343 343
309 310 311 313 311 313 315 314 313 315 313 313 314 313 311 311 311 311 312 312 313 314 315 313 314 315 316 318 328 328 331 332 342 343 342 342 342 342 342 341 342 341 341 342
307 307 310 314 314 318 312 314 314 314 314 313 312 312 311 310 310 311 311 311 314 311 310 310 311 313 313 317 326 328 328 330 330 339 340 339 339 338 337 338 337 340 340 339
308 311 316 316 310 312 311 315 313 314 312 311 311 311 311 310 310 310 310 312 311 310 310 309 310 312 313 316 319 329 327 329 329 333 339 338 337 336 335 333 334 334 335 335
311 312 315 315 315 309 305 312 312 310 315 309 310 309 310 310 313 312 307 309 310 309 309 309 311 311 312 314 318 330 329 327 327 333 338 337 336 335 333 333 333 333 333 333
316 315 316 315 315 310 310 313 310 315 312 311 312 310 309 311 311 310 309 310 310 309 309 309 310 310 312 315 319 328 327 326 325 326 331 335 334 334 334 333 333 332 332 331
314 314 314 314 316 314 312 312 314 309 310 312 312 311 311 311 311 310 309 309 309 309 309 309 309 311 313 315 320 329 328 327 325 324 335 334 334 333 332 332 331 331 331 330
313 312 315 314 312 309 309 310 310 311 313 313 312 311 310 309 309 309 309 309 309 309 309 309 310 311 313 316 321 328 325 323 324 329 334 333 333 332 332 332 331 330 330 328
311 309 308 308 309 310 311 311 311 313 314 312 310 307 308 309 308 308 308 309 309 308 310 311 311 312 313 315 321 323 326 324 331 334 334 334 333 332 332 332 331 330 329 329
307 306 307 308 309 310 310 311 311 310 309 308 307 306 306 307 308 308 308 310 309 309 310 311 312 312 314 316 321 325 331 333 333 334 334 332 331 331 331 330 330 330 330 330
307 307 310 310 308 310 311 311 309 307 306 305 305 306 306 307 308 308 309 310 311 311 311 311 311 313 314 317 322 326 327 333 333 332 332 330 328 326 327 327 326 330 331 331

GFSCGP_925_thetae_078.txt.gz
Theta_e
305 306 307 307 305 307 309 309 309 308 308 311 310 310 309 309 308 307 308 308 308 309 310 309 309 311 313 312 312 313 316 317 324 337 342 340 340 341 338 335 334 332 334 336
304 307 307 307 307 307 308 309 310 310 311 310 309 310 309 309 308 308 308 308 308 307 306 308 311 313 314 314 313 314 314 314 317 327 338 340 340 340 341 338 337 338 338 338
306 307 307 308 308 309 309 310 313 312 311 309 309 307 308 309 308 308 307 307 306 305 308 312 313 313 313 313 314 315 315 315 314 317 332 341 341 341 341 341 341 340 340 340
306 306 307 307 308 310 311 312 311 311 309 308 309 309 308 308 308 307 306 304 307 311 312 312 312 311 311 312 313 314 316 316 316 316 329 340 341 341 341 341 341 341 342 342
307 307 307 307 309 311 309 311 310 311 310 309 309 309 307 306 307 306 306 309 311 311 311 311 310 310 311 311 312 314 317 317 317 317 323 339 341 341 341 341 341 342 341 340
305 305 307 308 311 310 309 309 305 305 305 309 308 308 307 306 308 308 309 311 312 311 310 309 309 310 310 311 312 315 316 316 317 317 319 334 341 341 340 341 341 341 340 340
306 306 311 310 308 306 305 304 306 306 307 311 307 308 308 308 308 308 311 312 311 310 309 308 309 310 311 312 313 315 316 314 316 318 319 325 340 341 340 340 340 339 337 336
306 307 310 311 308 307 307 305 306 310 312 306 308 309 308 306 307 312 313 312 311 309 309 310 310 310 311 312 313 315 315 313 314 318 320 322 328 340 340 339 339 337 334 331
309 309 308 308 308 306 306 308 305 307 307 308 307 307 306 307 308 312 312 311 309 310 311 310 310 311 313 314 314 314 315 314 314 317 321 323 327 336 338 338 339 339 332 332
307 311 309 309 308 308 306 306 309 304 313 313 309 308 308 307 307 308 311 310 309 310 310 310 311 312 314 316 315 314 315 315 315 317 321 324 328 334 336 336 338 336 332 336
308 308 310 309 308 306 307 309 309 305 305 307 312 308 307 309 310 309 310 309 309 310 310 311 311 313 315 316 317 317 318 318 318 322 320 324 330 333 334 335 337 333 333 338
309 307 311 310 308 307 306 307 308 307 309 310 312 312 308 307 309 311 310 311 310 310 311 311 312 314 316 316 316 316 318 325 328 330 323 324 329 332 334 334 334 332 336 340
309 308 311 308 306 306 310 311 309 307 307 313 315 311 309 310 308 309 310 310 312 312 312 312 311 311 315 316 315 314 316 320 327 330 324 324 329 333 334 334 334 334 338 341
311 306 310 310 307 305 309 310 309 309 315 312 312 311 311 310 310 309 310 311 310 312 313 313 313 313 316 315 313 313 316 318 327 333 325 327 332 333 334 334 335 337 339 342
310 311 309 310 310 311 311 312 312 313 313 315 313 313 311 311 311 310 311 310 312 312 312 313 315 315 314 313 312 313 316 318 328 336 333 331 333 335 336 338 339 340 341 343
305 310 309 311 311 312 313 313 313 313 313 313 313 313 311 310 309 309 309 311 312 312 312 315 313 313 312 312 312 314 315 320 329 340 339 338 339 339 340 341 341 342 343 343
308 310 312 311 310 312 312 312 311 311 311 311 313 311 310 311 311 310 309 310 311 311 313 311 311 312 311 312 312 313 315 321 329 340 341 341 341 341 342 342 342 341 340 341
307 308 310 312 311 313 309 312 313 312 312 311 311 312 310 310 310 309 308 309 310 310 311 310 310 310 310 311 312 313 315 326 328 334 338 340 341 341 341 341 341 339 339 339
307 308 313 315 313 311 309 312 314 313 311 310 310 311 311 309 309 310 309 309 309 309 310 310 309 309 309 310 311 312 316 327 327 327 338 339 339 338 339 338 336 336 336 338
310 309 312 317 312 310 307 309 310 310 312 310 308 309 310 310 314 313 310 309 310 309 309 309 309 309 309 310 310 312 318 327 326 326 338 337 337 336 335 334 333 335 338 337
315 313 314 314 315 311 309 311 309 315 309 308 310 311 312 313 312 311 309 309 309 308 308 308 309 309 309 309 310 314 319 327 325 327 327 336 335 333 332 332 334 334 334 333
316 315 315 314 314 314 312 311 313 308 308 311 311 312 313 311 310 310 309 308 308 308 308 308 308 308 309 309 311 315 325 325 325 324 328 334 331 331 331 332 330 331 330 327
310 313 315 314 309 309 308 310 308 308 310 310 313 312 311 310 309 308 308 308 307 307 307 308 308 309 310 310 312 316 323 326 325 325 330 332 331 331 331 329 328 328 328 325
308 308 307 306 308 307 306 307 307 308 309 310 309 307 305 305 305 306 306 307 307 307 309 309 309 309 310 311 313 316 321 326 325 323 332 331 329 329 329 329 329 328 326 325
307 305 305 305 306 307 308 309 309 309 309 307 305 304 304 306 306 307 306 308 308 309 309 310 310 310 311 312 314 315 322 326 325 322 330 331 329 328 327 327 328 328 329 329
306 307 310 312 309 309 310 311 310 310 308 305 304 305 305 306 306 306 306 307 307 308 309 310 310 311 312 313 314 319 324 324 325 325 328 330 327 324 322 322 325 328 329 329

GFSCGP_925_thetae_084.txt.gz
Theta_e
313 314 314 314 314 314 314 314 314 314 314 315 315 315 316 315 316 315 315 315 316 315 315 315 318 319 319 320 321 322 324 325 324 326 331 335 341 343 344 344 342 341 341 340
313 313 313 312 313 313 314 314 314 314 314 314 314 315 315 315 315 315 315 315 316 316 315 317 319 318 318 319 320 321 322 324 325 324 324 327 332 337 341 343 345 346 343 342
312 313 312 312 313 314 314 314 314 315 314 314 314 314 315 314 314 315 315 316 316 315 316 318 318 318 318 319 319 319 321 322 323 326 325 326 330 335 338 342 344 347 346 344
312 311 311 311 312 312 314 313 313 313 313 314 313 313 313 313 313 314 316 316 316 316 318 317 318 318 318 318 318 320 322 323 322 324 325 326 328 329 330 337 340 344 347 346
312 311 311 312 312 312 313 313 313 313 313 313 313 313 314 314 314 315 315 315 316 317 317 317 318 317 317 318 319 320 322 323 324 324 325 326 325 324 327 330 337 343 346 348
312 311 311 312 313 313 313 313 313 313 313 313 313 313 314 314 314 314 314 315 315 316 317 317 317 317 317 317 318 320 321 323 324 324 325 325 327 327 328 329 334 338 344 347
313 312 312 313 313 313 313 313 314 314 315 314 315 314 313 314 313 313 313 313 313 316 316 317 317 317 317 318 318 318 319 320 321 323 324 325 326 327 328 330 330 335 339 344
314 314 312 313 313 313 313 313 314 313 311 312 313 313 314 313 312 312 313 314 316 316 316 317 317 316 317 317 318 318 319 319 320 321 323 326 328 327 327 327 331 335 339 342
314 314 312 313 312 312 313 314 313 313 312 312 313 312 313 313 313 313 313 315 315 315 316 315 315 316 316 317 317 317 318 319 320 320 321 324 328 330 329 330 332 334 338 338
314 316 313 313 312 312 313 313 313 313 313 313 312 313 313 314 313 313 314 314 315 315 315 315 316 316 316 316 316 316 316 317 318 319 320 322 325 330 332 332 332 335 337 340
315 316 315 314 314 314 314 313 313 315 318 318 314 313 315 314 314 314 314 315 315 315 316 316 316 315 315 315 316 317 317 317 318 318 319 321 324 328 330 333 335 334 338 340
314 315 316 313 313 313 313 314 314 317 316 316 315 315 314 314 314 314 315 316 316 316 316 316 315 314 314 314 315 315 315 315 315 316 318 319 323 326 328 332 336 336 337 340
314 314 317 315 315 314 314 314 314 315 316 317 318 315 315 315 316 315 316 316 316 316 316 316 315 315 314 314 314 314 314 314 314 315 317 318 322 325 327 331 336 337 337 339
314 315 315 315 313 314 315 313 313 314 317 316 315 315 315 315 315 315 316 316 316 316 316 315 315 315 314 313 314 314 313 313 315 316 317 318 322 324 326 330 337 338 337 338
313 317 315 313 313 313 314 313 313 314 314 315 315 315 315 315 315 316 316 316 316 316 316 316 315 316 316 315 314 314 313 312 313 315 316 319 321 323 326 329 338 338 337 340
312 315 313 313 311 311 312 313 313 312 313 314 314 314 314 314 315 315 316 316 316 316 315 315 316 316 316 316 315 314 313 312 313 314 316 318 320 322 325 329 340 337 338 343
312 313 314 314 311 311 314 312 312 313 313 313 314 314 316 315 315 316 316 316 316 316 316 316 316 316 316 315 314 314 313 312 313 314 316 318 319 320 324 333 340 337 342 347
311 312 314 315 312 317 312 311 313 315 316 315 314 315 315 315 315 315 315 315 316 317 316 316 316 316 314 313 313 313 312 312 313 314 316 317 316 321 324 338 337 340 346 349
311 313 314 315 314 312 312 313 315 317 317 314 315 314 315 315 314 315 315 314 314 315 315 314 313 312 312 312 312 312 312 313 312 313 313 315 318 321 328 339 338 343 348 349
312 313 315 315 318 318 317 314 314 315 318 316 315 315 315 314 316 315 315 314 315 313 312 312 311 310 310 311 311 311 313 312 313 313 313 314 317 324 336 339 344 346 347 348
316 313 315 315 319 317 315 314 313 318 318 316 315 314 314 315 315 315 315 315 312 311 310 309 309 309 310 310 311 313 313 314 313 313 313 315 318 334 338 340 341 342 343 344
315 316 318 318 320 319 314 314 316 315 314 314 315 314 314 314 315 315 313 312 311 310 310 308 308 308 309 310 311 312 314 314 315 316 318 323 336 339 340 340 341 341 341 341
314 313 315 314 316 314 313 313 313 313 312 311 312 312 314 314 314 314 312 311 310 309 308 307 307 308 310 311 311 313 315 316 316 319 326 329 335 338 339 338 339 339 339 339
311 311 313 313 312 312 312 312 313 313 313 313 312 314 314 314 313 311 310 310 310 308 308 306 307 309 311 311 312 314 315 316 319 321 329 331 333 335 336 336 337 338 339 337
312 311 309 310 311 310 311 311 312 312 312 311 310 310 310 310 310 310 310 309 308 308 306 306 307 309 311 309 313 315 316 317 320 321 327 332 332 333 333 333 337 337 336 334
307 309 308 309 306 305 307 310 311 309 308 308 309 310 310 309 308 307 307 307 306 306 305 304 306 307 309 311 313 317 317 319 320 322 329 328 328 330 331 332 324 331 333 333

GFSCGP_925_thetae_087.txt.gz
Theta_e
316 316 316 315 316 315 316 316 318 317 316 317 318 318 319 319 319 319 319 319 319 318 320 317 320 320 321 323 325 323 328 323 326 326 329 335 342 346 345 345 344 344 342 342
315 316 315 316 316 315 316 316 316 316 316 317 317 318 317 318 319 318 318 319 318 319 318 318 320 320 321 322 324 324 324 325 327 327 328 327 330 329 339 344 345 346 345 343
314 315 315 314 314 315 315 316 316 316 317 317 317 317 317 317 317 317 317 317 318 319 319 319 320 320 320 321 322 323 325 326 327 328 327 327 327 329 329 328 341 343 347 347
314 314 313 314 313 314 316 316 315 315 316 317 317 317 317 317 316 316 317 317 317 318 319 320 320 320 320 320 320 322 325 326 325 328 326 328 331 330 329 331 335 339 345 350
314 314 313 313 314 314 314 315 316 316 316 317 316 316 316 317 317 316 316 318 318 319 319 320 319 319 319 319 320 321 323 325 326 328 329 328 326 326 327 327 329 332 338 350
314 314 313 314 314 313 314 315 315 315 316 317 316 316 316 317 317 317 317 317 317 318 319 319 318 318 318 318 319 320 322 323 324 324 326 328 329 329 329 329 330 332 335 341
315 315 314 313 313 315 315 315 316 317 317 317 317 316 316 317 316 317 316 317 317 317 318 318 318 318 318 318 319 319 320 321 322 322 323 325 328 329 330 331 329 328 329 333
316 316 316 314 315 315 316 317 318 321 319 316 317 316 316 315 316 315 314 314 315 316 317 317 318 317 317 318 318 319 319 320 321 322 323 323 325 326 328 329 330 329 329 331
317 316 315 315 316 315 314 315 315 316 316 316 316 316 317 315 314 314 314 315 317 317 318 317 317 316 316 317 318 318 318 319 319 320 321 322 323 325 327 331 333 331 331 333
316 317 315 316 315 314 314 314 317 317 316 315 314 315 316 316 315 315 315 316 316 317 317 317 317 317 316 317 317 317 317 318 319 319 320 320 321 322 324 328 331 335 335 335
316 317 316 316 317 318 315 316 316 314 316 319 322 317 317 316 316 316 316 316 317 318 318 318 318 317 316 316 316 316 317 318 318 318 319 319 320 321 323 326 330 332 335 338
315 316 316 316 315 316 317 316 317 321 317 315 315 315 316 316 316 316 316 317 317 318 318 318 318 317 316 316 316 316 316 317 316 316 316 316 318 319 322 324 327 331 335 338
315 318 320 317 316 315 315 315 314 314 316 318 321 322 318 317 316 317 318 317 317 318 318 318 318 318 317 316 316 315 315 315 315 315 315 316 319 320 322 324 327 328 333 336
315 316 318 319 316 319 319 317 316 316 319 316 315 315 317 317 317 317 316 317 317 318 318 317 318 318 317 316 316 316 316 316 315 315 314 315 316 321 321 322 326 328 331 335
313 315 315 314 316 315 317 316 315 317 316 317 315 314 315 315 315 316 316 316 317 317 318 317 317 318 318 317 316 316 317 317 316 316 315 314 315 318 320 322 324 327 330 333
312 316 314 316 314 313 314 313 313 314 313 314 314 315 315 314 314 314 315 316 317 317 317 317 317 317 318 317 317 317 317 316 316 316 315 314 314 316 319 322 324 326 329 332
313 314 315 318 314 315 315 313 313 313 313 313 314 314 314 313 314 317 318 318 317 317 317 317 318 318 317 317 317 317 316 316 316 315 314 313 314 316 319 321 323 326 329 333
312 314 316 319 315 321 314 313 314 314 314 315 316 316 315 315 317 317 317 316 315 316 318 317 316 316 315 315 315 315 314 314 314 315 314 313 315 317 319 321 320 325 329 337
311 314 316 317 316 313 313 313 313 317 318 316 318 317 317 316 316 315 315 314 317 317 317 316 315 313 313 313 313 312 313 313 314 313 313 314 314 315 315 317 320 323 330 338
315 316 317 317 319 318 320 315 315 316 319 319 318 317 316 315 316 315 316 316 316 315 315 315 313 312 311 311 312 312 312 313 312 313 314 314 314 314 315 317 317 322 331 339
316 316 319 318 320 317 318 316 315 318 320 316 315 316 316 317 317 316 316 315 315 315 315 312 311 311 311 310 310 311 312 312 312 314 315 315 315 314 316 317 320 325 336 340
315 320 320 318 319 320 315 316 318 318 316 316 315 315 315 315 315 315 315 315 315 316 313 311 311 311 310 309 310 312 312 312 313 314 315 316 316 317 320 321 322 330 338 343
318 315 317 316 318 315 314 315 315 314 314 313 314 314 314 314 314 313 314 314 314 313 313 311 311 310 309 309 310 311 312 313 314 315 316 316 317 318 320 320 327 338 341 343
313 313 314 314 315 313 313 313 312 312 312 313 312 310 309 309 309 310 311 312 312 311 311 309 309 309 309 309 310 312 311 314 315 316 316 314 315 316 318 334 338 341 341 342
311 312 311 312 311 311 312 312 312 312 312 312 310 309 309 309 309 309 309 309 309 309 307 308 309 309 309 308 310 311 313 313 317 319 322 331 332 333 334 332 339 340 339 341
310 310 309 310 308 307 307 310 311 311 310 307 308 308 306 306 306 305 305 306 306 307 306 307 307 308 308 308 310 312 314 315 320 323 323 329 331 331 331 326 321 336 337 337

GFSCGP_925_thetae_093.txt.gz
Theta_e
312 311 312 311 311 313 313 313 314 315 316 315 315 315 316 316 318 316 315 315 317 319 320 324 325 324 325 328 329 328 321 319 329 326 331 344 346 344 339 338 338 341 343 338
313 313 315 316 316 315 314 315 315 315 315 315 314 315 315 317 317 316 315 317 319 318 320 322 323 323 326 324 323 327 330 325 327 327 324 326 334 345 347 344 345 345 344 344
313 314 315 315 314 315 314 314 315 315 315 314 314 314 314 317 317 316 315 315 317 318 318 321 321 321 321 325 326 326 325 325 325 327 328 324 324 326 328 332 346 338 334 339
313 314 315 314 314 314 313 314 315 314 314 315 315 315 314 317 316 316 316 315 315 316 317 320 321 322 322 322 322 320 327 326 326 328 326 329 324 329 330 329 329 329 329 330
313 313 313 314 314 314 313 314 314 314 313 313 314 314 314 315 315 315 314 316 314 316 318 319 320 322 323 323 322 323 324 324 326 327 326 325 326 327 323 328 329 329 329 328
312 313 313 313 314 314 314 313 313 312 311 313 313 314 314 314 315 315 316 315 316 315 317 319 320 321 320 320 320 324 323 323 325 324 324 325 328 328 327 326 324 323 323 325
315 315 315 314 313 313 312 311 311 312 313 315 313 315 316 317 317 317 317 315 315 316 317 318 316 317 319 319 320 320 321 321 321 322 322 323 324 324 328 329 329 329 329 327
316 316 315 315 316 314 313 311 314 318 319 318 317 321 318 319 316 317 317 315 315 316 317 317 317 317 318 319 319 319 322 321 321 321 321 323 323 324 323 323 324 325 332 334
315 316 316 316 317 316 315 315 314 318 321 321 316 315 315 318 318 318 316 316 315 314 315 314 314 316 316 317 319 320 321 320 321 320 321 320 320 323 322 322 323 323 324 326
315 316 316 315 315 316 315 316 317 321 323 323 319 317 315 318 318 317 316 313 313 313 313 313 313 315 316 316 316 316 320 320 319 319 319 319 320 320 322 323 325 322 322 324
316 314 315 316 316 315 315 316 318 320 319 319 318 315 316 318 317 317 316 315 315 314 313 313 313 315 317 317 318 318 317 319 319 319 319 321 322 321 319 318 317 319 321 322
316 317 315 315 314 315 318 318 320 323 323 322 320 317 316 317 315 316 316 315 315 314 313 312 312 314 316 317 318 317 318 318 317 318 319 319 318 317 317 317 316 316 320 322
315 315 317 317 314 318 319 319 319 320 320 320 323 320 317 317 317 317 316 316 315 315 314 314 316 313 314 316 317 317 317 317 316 316 317 317 317 318 318 317 318 315 314 315
317 317 317 320 318 315 318 318 317 319 321 318 321 319 316 317 317 316 316 316 315 314 315 315 316 316 313 316 317 317 317 317 317 317 317 317 317 317 316 317 316 317 316 314
314 317 317 317 317 316 313 313 316 319 319 320 316 317 317 316 317 315 314 315 316 315 315 315 315 315 316 315 318 318 318 317 317 317 317 319 319 319 318 316 316 315 315 317
315 316 317 317 315 315 314 313 314 315 317 318 317 318 315 317 316 317 318 317 315 316 316 318 316 319 318 317 316 316 315 315 315 316 317 317 318 318 318 318 318 316 316 315
309 313 314 314 312 314 315 316 318 318 316 317 320 320 317 318 317 316 315 317 318 318 317 315 316 317 316 317 317 316 316 316 318 318 317 316 316 316 316 316 316 317 316 315
308 310 311 311 314 314 313 316 317 318 319 319 318 319 319 317 316 316 316 316 316 314 314 313 312 313 315 315 316 315 317 316 315 315 314 314 314 314 314 314 314 315 316 315
313 312 310 314 311 314 313 318 318 319 319 317 317 316 315 314 313 313 315 314 314 313 312 312 313 314 314 314 314 315 316 314 314 314 314 313 313 313 313 312 312 312 313 314
316 314 311 311 313 315 318 317 316 317 317 315 315 313 313 311 313 312 311 311 311 310 311 311 312 313 313 314 314 313 315 314 314 313 313 312 312 311 311 311 312 312 312 312
316 311 310 314 315 314 317 315 317 320 319 315 313 313 312 312 311 310 309 308 308 308 308 308 309 308 309 311 312 313 313 312 312 311 311 311 310 311 312 312 312 312 313 313
317 316 317 317 317 316 316 316 318 315 311 311 311 310 311 310 309 307 306 305 304 304 305 306 306 306 307 308 308 309 309 309 309 310 310 310 310 311 312 312 313 314 314 315
316 316 312 316 313 312 311 313 310 309 309 309 309 309 309 307 306 306 304 303 303 303 304 304 305 305 305 305 305 306 307 307 308 308 309 310 311 311 312 312 312 313 314 316
313 311 313 311 313 307 307 306 307 306 306 307 307 307 307 306 306 304 303 302 302 301 302 303 303 304 304 304 305 305 306 307 308 309 310 310 310 311 312 313 313 312 313 315
311 310 308 309 309 305 308 306 305 304 306 307 307 306 307 304 305 303 303 301 300 300 301 301 301 301 302 302 303 303 305 306 309 309 309 310 311 311 311 310 311 313 313 314
309 308 310 308 306 305 306 305 304 306 305 305 305 306 305 305 304 302 302 299 299 299 299 300 300 301 301 302 303 304 305 307 308 309 310 311 312 313 314 314 312 312 315 317

GFSCGP_925_thetae_096.txt.gz
Theta_e
310 309 309 310 309 310 310 311 311 312 314 313 312 312 312 312 312 314 312 312 314 319 320 322 325 327 328 328 327 326 324 329 338 341 334 331 331 327 340 346 342 343 342 341
310 310 311 312 313 313 312 311 312 313 314 313 312 311 312 312 314 312 312 313 314 316 320 323 325 327 328 328 328 328 324 321 323 331 331 331 338 340 331 336 337 344 344 344
310 312 313 314 313 314 312 313 313 314 314 313 312 312 312 313 313 313 313 313 315 317 320 322 323 324 324 324 326 326 326 324 321 323 326 328 327 332 334 335 328 334 343 343
309 310 313 312 313 312 312 312 313 313 313 311 313 313 312 313 313 313 312 311 311 314 318 321 321 320 324 324 323 322 322 320 319 319 320 325 328 330 328 327 331 329 330 334
311 312 311 312 312 313 312 312 312 313 311 310 311 311 312 311 313 313 312 312 311 310 316 318 319 319 323 325 325 324 321 321 321 323 324 324 324 325 327 330 329 328 330 332
310 311 312 311 313 312 312 312 311 310 308 310 310 311 312 312 312 314 314 314 314 314 313 318 319 319 321 322 320 321 323 323 322 321 322 322 325 325 327 328 328 328 328 327
312 312 312 313 312 312 311 308 309 309 310 312 310 312 312 312 314 316 315 315 315 314 312 317 319 319 319 321 321 323 323 323 323 323 322 321 321 322 324 325 327 326 326 328
314 315 314 314 313 313 310 309 313 314 313 313 315 318 316 315 315 316 316 315 313 313 316 319 318 317 317 318 320 323 323 321 322 322 321 321 321 322 322 323 322 321 323 325
313 315 315 315 315 314 315 315 310 318 322 321 318 315 314 314 315 316 316 314 313 314 315 317 316 317 316 316 319 321 321 319 320 320 321 321 322 323 322 322 322 321 322 324
314 316 314 315 314 313 315 314 317 320 323 324 320 319 317 313 316 315 316 317 315 312 314 313 314 314 315 317 318 318 319 320 320 320 320 320 321 320 319 322 322 323 323 321
315 315 316 314 314 313 314 315 318 316 319 325 322 315 311 316 315 316 316 314 313 315 313 312 310 312 315 315 317 318 318 319 320 320 320 320 320 319 319 320 323 320 318 316
314 313 315 315 313 313 316 317 316 316 317 322 323 322 315 314 313 314 314 316 314 314 312 312 312 312 312 313 315 315 315 318 320 320 320 320 318 318 320 322 319 317 316 315
314 313 316 316 312 313 317 318 317 317 318 319 323 317 315 316 316 315 314 315 314 315 314 313 313 312 313 313 314 313 316 317 317 318 319 318 319 320 320 319 317 316 316 315
314 314 315 318 318 317 318 317 317 318 317 316 319 317 315 316 318 316 315 312 312 314 315 314 313 311 313 314 315 316 316 315 317 316 317 318 320 320 319 317 316 317 316 316
313 316 316 316 317 317 318 317 317 318 316 318 315 317 316 316 316 315 315 315 315 314 315 314 315 314 312 315 315 317 317 316 316 316 316 317 317 317 317 317 317 317 317 316
311 313 316 317 315 315 316 315 314 313 313 313 314 315 317 316 315 315 314 316 316 315 315 315 315 316 317 317 316 316 316 315 315 315 315 315 315 316 318 318 317 317 316 316
308 310 311 311 313 314 312 311 315 317 317 318 318 319 317 316 316 315 315 314 315 316 314 312 312 312 313 314 314 315 316 316 315 315 315 316 316 317 316 315 315 316 316 317
306 306 305 308 310 312 309 315 317 315 315 316 314 315 317 315 313 313 314 313 314 313 312 311 312 311 310 311 313 313 313 313 314 315 316 317 316 315 315 315 315 315 314 315
306 307 307 309 307 310 312 316 316 317 318 315 314 314 314 312 310 310 313 311 309 310 309 309 310 311 310 310 311 312 312 313 313 313 314 314 314 314 313 313 313 313 312 312
311 311 312 305 310 313 315 316 314 316 317 314 313 313 312 310 312 310 308 307 304 303 304 304 305 306 306 307 307 308 309 311 312 313 313 313 313 313 312 312 311 311 310 309
311 310 306 306 311 312 315 314 315 315 315 312 310 309 308 309 308 308 307 305 303 302 303 303 303 302 303 304 305 305 306 307 308 309 310 311 310 311 310 310 310 309 309 310
315 314 312 313 317 315 312 314 316 312 309 308 308 307 307 307 306 306 305 304 303 303 303 302 301 301 302 303 303 304 304 305 305 306 308 308 308 309 309 309 309 310 311 311
315 315 311 309 310 310 308 309 307 306 305 306 306 305 306 306 304 307 304 304 304 303 302 301 301 300 301 301 302 303 303 303 304 305 306 307 308 308 308 309 309 311 311 312
311 309 311 308 308 305 305 305 304 304 304 304 304 306 305 305 305 304 305 304 303 302 302 301 300 299 300 300 300 301 301 302 302 303 304 305 306 307 310 311 311 311 311 312
308 307 306 306 306 305 306 305 305 305 305 305 304 303 304 304 305 302 302 301 299 300 300 299 298 298 298 299 299 300 300 301 303 304 305 307 308 308 309 309 309 309 310 311
308 306 302 304 306 306 306 305 304 305 304 303 303 303 304 302 301 301 298 297 299 298 298 298 298 298 299 300 300 301 302 302 303 304 305 307 308 309 309 310 311 310 309 309

GFSCGP_925_thetae_102.txt.gz
Theta_e
307 306 307 307 306 307 309 308 309 309 308 310 309 309 309 309 308 308 308 309 308 308 312 316 320 321 324 331 337 341 342 344 344 342 344 344 345 346 344 336 334 328 331 332
307 308 307 308 308 308 308 309 309 309 309 308 309 309 308 309 309 309 310 309 309 308 308 309 314 319 320 325 333 338 342 344 344 344 345 343 345 345 343 340 339 336 332 332
307 309 309 310 310 311 310 310 311 311 311 310 310 309 310 310 310 309 310 309 308 309 310 311 313 318 320 322 324 332 339 343 345 345 345 338 338 339 336 333 334 336 336 331
307 308 309 308 310 309 310 309 310 311 311 309 310 311 309 309 309 309 309 307 307 307 307 309 312 316 320 322 323 323 328 335 342 342 341 335 334 333 337 339 338 339 341 339
310 310 309 310 309 309 309 309 309 310 309 308 309 308 307 309 309 308 307 307 307 307 308 308 309 313 317 320 323 324 324 330 334 337 337 337 333 329 328 331 330 332 334 335
308 309 309 308 310 309 311 311 307 305 305 308 308 308 309 308 309 308 309 308 308 308 309 308 309 311 314 318 322 324 325 324 324 325 327 328 328 326 325 324 325 327 329 329
310 310 309 310 310 310 309 308 310 311 310 313 309 308 310 308 308 308 309 309 309 309 309 310 311 309 313 317 320 324 326 324 322 321 321 320 319 320 320 320 320 322 325 326
310 312 310 311 310 311 307 307 310 316 313 314 313 310 309 308 310 311 311 310 309 308 308 311 313 310 310 315 319 322 324 322 321 321 320 319 318 316 316 316 317 319 321 320
310 312 312 312 311 309 311 309 308 310 315 316 314 313 314 313 312 312 314 311 311 310 310 311 312 314 314 316 319 321 321 319 320 319 319 318 318 317 317 318 319 320 321 319
313 314 313 313 313 312 313 313 316 315 320 318 315 318 316 314 313 315 314 313 310 310 310 309 309 312 313 315 316 319 321 319 319 320 318 317 318 317 318 318 318 319 320 319
312 312 314 313 313 314 313 315 317 317 319 324 324 317 310 311 313 314 313 312 312 311 309 309 309 312 312 312 317 316 318 320 319 320 320 319 319 318 319 319 319 319 318 319
312 314 317 316 312 314 315 316 319 321 322 320 315 318 313 311 313 314 312 312 312 312 311 309 309 312 313 314 312 314 316 317 319 318 318 318 319 320 319 319 319 320 319 319
313 314 320 318 314 314 317 318 317 316 315 317 319 317 312 312 312 312 312 313 313 315 313 312 310 309 310 311 313 314 313 313 314 315 316 317 318 317 318 319 319 319 320 319
313 314 316 320 317 315 317 317 317 317 318 314 316 316 314 314 313 312 311 312 313 314 314 312 310 310 311 313 312 314 314 314 314 315 314 314 314 316 317 318 318 319 319 319
313 315 315 316 315 313 313 315 316 317 316 317 314 314 313 312 313 312 311 312 315 314 313 312 311 310 310 310 310 311 311 312 313 313 313 313 314 314 315 316 317 318 318 318
309 310 312 313 312 313 316 313 312 314 314 314 314 315 310 309 312 314 311 312 313 312 311 311 310 310 309 308 308 307 307 307 309 310 311 312 313 313 313 314 315 317 318 317
308 309 311 311 310 311 312 311 310 311 313 313 315 313 310 312 313 313 311 312 311 309 308 308 307 307 305 304 304 305 305 304 305 306 307 309 311 312 313 313 314 314 315 316
304 306 307 308 308 313 309 314 314 314 315 314 314 314 313 313 310 308 308 308 308 306 305 304 304 304 303 303 302 302 303 303 303 304 305 306 307 309 311 312 313 313 314 315
305 307 307 311 309 309 312 316 315 314 315 314 315 313 311 309 307 307 308 307 305 305 304 303 304 302 302 303 302 302 302 301 301 302 303 304 305 306 308 308 311 313 313 314
307 310 311 308 310 313 307 314 312 313 314 311 310 309 308 307 309 308 305 304 304 304 303 303 303 303 302 302 302 302 302 301 301 301 301 302 303 305 306 307 307 307 310 312
312 312 309 314 314 313 312 312 312 313 308 306 305 304 304 307 306 305 304 304 303 303 303 303 303 303 303 302 302 301 301 301 301 300 300 301 302 303 304 305 306 308 308 309
311 313 306 311 312 310 306 308 310 305 303 304 304 304 305 305 305 305 305 304 302 302 303 302 301 300 300 301 302 301 300 300 300 300 300 300 300 301 302 303 304 306 307 308
312 311 308 308 306 306 304 304 304 303 303 303 305 305 306 306 305 303 302 302 303 303 300 300 300 300 299 298 298 298 298 300 300 299 299 300 300 301 302 303 303 304 304 305
308 306 309 308 306 306 303 303 303 303 304 304 304 304 303 302 302 302 303 302 303 300 299 299 299 298 297 297 298 299 299 299 298 298 298 298 299 299 300 300 301 301 303 304
306 306 305 305 303 303 304 303 302 303 303 304 303 303 303 303 302 299 299 299 299 298 297 297 296 296 297 297 297 298 297 297 298 299 299 300 300 300 301 301 301 302 302 303
304 304 302 304 303 303 303 302 302 302 303 303 303 303 303 302 299 298 298 298 299 298 295 295 295 295 296 295 296 296 297 297 298 299 300 300 301 302 303 303 304 304 304 304

GFSCGP_925_thetae_105.txt.gz
Theta_e
311 313 313 313 312 310 311 313 314 314 314 313 316 316 316 316 315 316 316 317 317 318 318 316 317 320 321 325 330 334 342 346 345 344 344 344 342 341 340 339 334 333 329 331
312 312 312 310 311 311 312 313 314 314 314 313 315 316 316 316 315 316 316 317 317 318 318 319 317 318 323 323 325 330 337 343 346 345 345 346 345 343 341 339 339 335 328 328
312 312 311 311 312 313 313 314 315 314 314 313 314 315 315 315 314 315 315 316 316 317 317 317 318 318 321 324 324 326 330 337 344 346 347 343 345 345 345 345 344 339 338 336
312 312 311 312 312 312 314 313 314 314 314 315 313 315 315 315 315 315 316 316 317 316 317 317 318 318 320 321 323 323 323 331 338 342 342 342 343 344 344 344 344 342 342 339
313 312 311 312 313 312 313 312 313 313 314 314 315 315 315 314 315 315 316 316 316 317 316 316 317 316 317 318 321 322 322 325 332 338 341 341 343 344 340 339 338 338 337 337
313 311 312 313 312 312 313 313 313 311 313 316 316 316 315 315 316 316 316 315 315 315 316 317 317 317 318 318 319 323 325 323 328 333 338 340 339 335 335 336 337 336 337 339
314 314 313 312 313 314 313 314 316 317 317 318 317 317 316 316 316 316 315 316 317 317 316 317 317 318 319 320 319 321 324 327 328 329 334 336 336 334 331 332 332 332 332 332
316 317 314 313 314 315 315 315 317 319 319 318 316 317 317 315 315 314 316 317 317 317 318 318 318 319 320 320 319 319 321 325 327 328 330 331 330 329 328 328 327 327 328 330
314 315 313 314 315 314 316 315 315 316 317 318 317 317 317 317 317 317 318 318 318 318 318 318 317 317 318 320 321 321 321 322 326 326 326 326 322 320 323 320 317 324 324 324
316 318 316 315 314 313 314 315 319 319 321 323 320 319 319 318 317 317 318 317 315 317 318 318 317 317 316 317 319 321 322 323 323 325 325 324 319 316 316 316 319 320 321 323
315 315 317 316 317 317 316 317 318 319 321 324 324 321 319 317 317 318 317 316 315 316 317 317 317 316 317 317 316 319 321 322 322 323 323 323 323 319 320 318 317 317 318 320
315 317 319 318 317 315 316 317 319 326 327 324 325 323 317 317 317 317 316 315 315 317 318 317 316 315 315 315 315 317 316 316 319 321 319 319 321 320 319 320 323 322 319 318
315 317 321 319 317 316 318 318 319 320 320 324 325 321 315 316 315 315 316 315 315 317 317 316 315 315 315 315 315 316 318 317 316 316 315 317 320 319 319 318 319 324 320 323
314 316 318 319 319 318 321 318 317 320 324 320 319 319 316 314 314 315 316 316 316 317 315 314 314 313 312 312 312 312 312 313 316 316 316 317 316 317 318 318 320 320 323 323
313 318 315 315 314 313 313 313 313 313 315 319 316 315 313 313 315 317 316 315 315 315 313 313 312 312 311 309 310 309 309 309 308 310 313 314 312 313 315 316 318 319 320 322
313 315 314 313 310 310 311 311 311 311 312 315 314 313 313 314 314 315 315 313 312 314 313 312 310 308 308 308 308 308 308 308 307 308 308 309 311 313 314 315 315 318 319 320
311 313 313 312 310 311 313 312 312 312 312 314 316 315 315 316 316 315 314 312 311 311 312 310 309 308 306 306 306 306 306 306 306 307 306 307 308 309 311 313 315 316 317 319
311 311 311 312 311 316 314 316 315 316 316 316 317 316 315 314 312 311 311 311 311 312 310 309 308 307 305 305 305 305 305 305 305 305 305 305 306 307 309 310 311 313 316 317
309 310 312 313 314 313 313 316 316 315 315 315 316 314 313 310 309 310 309 309 309 309 309 308 306 306 304 304 305 305 305 305 305 305 305 304 304 305 305 307 309 310 311 314
309 310 313 314 317 316 313 315 313 313 316 310 309 309 309 308 309 309 308 307 306 306 306 305 305 304 304 305 305 304 304 304 304 304 304 304 303 303 304 305 306 308 309 310
312 314 314 315 318 315 314 312 312 317 316 309 308 308 308 308 307 307 306 306 306 305 304 303 303 304 304 303 302 302 302 302 303 303 303 303 302 302 303 303 304 305 307 308
316 316 316 315 316 316 309 311 313 312 309 308 308 307 307 308 307 307 306 306 305 304 303 303 303 303 302 302 301 302 302 300 300 300 300 301 302 302 302 302 303 304 305 306
316 315 315 316 315 312 309 309 308 307 308 308 307 307 306 305 306 305 305 304 303 303 301 300 301 301 300 299 300 300 299 299 299 299 300 301 300 300 300 301 303 304 305 306
311 310 313 312 311 309 308 307 307 306 306 306 306 305 305 305 305 305 305 304 302 301 300 299 299 299 299 298 298 298 297 298 299 298 299 299 299 300 301 301 301 302 303 304
310 310 311 312 309 308 307 307 306 305 305 305 304 305 304 304 305 305 304 302 301 301 299 299 299 299 298 297 297 297 297 297 298 298 298 299 299 300 300 301 301 301 302 303
309 311 312 311 308 308 308 306 305 305 304 304 303 304 304 304 305 304 304 302 301 301 298 298 298 298 296 296 296 296 296 296 297 297 298 299 299 300 301 301 302 301 301 302

GFSCGP_925_thetae_108.txt.gz
Theta_e
316 316 316 316 316 316 314 315 316 317 317 317 318 318 318 319 318 318 319 319 319 320 320 320 322 322 323 325 329 338 343 349 352 351 350 349 348 347 345 343 342 342 344 342
316 315 315 314 314 314 314 315 316 316 316 317 317 318 318 318 318 319 318 319 319 319 320 320 320 320 322 325 327 330 337 344 350 350 350 348 347 346 345 343 341 341 343 342
315 315 314 314 313 314 315 316 316 317 317 317 317 317 318 318 318 318 318 318 318 319 319 319 319 319 321 322 324 327 332 336 344 349 350 349 349 349 347 345 343 343 343 341
315 314 313 314 314 315 316 316 316 316 317 318 318 319 318 318 318 318 318 318 319 319 319 319 320 319 320 321 323 324 327 332 337 344 346 349 349 349 348 348 345 344 344 342
315 315 314 314 315 316 316 316 316 316 317 318 318 319 319 319 318 318 318 319 319 319 319 319 320 320 320 321 321 322 326 329 332 337 344 347 349 346 347 345 345 346 346 344
316 315 315 315 315 315 315 316 317 318 319 320 319 319 318 319 319 319 319 319 319 319 320 320 320 320 320 320 321 322 324 327 330 333 337 344 347 348 344 345 347 348 348 347
318 317 317 316 316 317 316 318 320 321 322 322 321 321 321 321 319 319 319 319 320 321 321 321 322 322 322 323 324 324 323 325 328 330 332 336 342 347 348 347 347 345 344 343
319 319 318 317 317 318 319 320 321 323 323 323 319 320 321 319 318 318 319 321 320 320 321 321 321 321 321 321 323 324 325 325 325 327 330 332 335 340 345 345 344 342 340 339
320 320 316 316 316 317 319 319 319 321 321 322 321 321 320 320 319 319 320 320 320 319 320 320 320 320 320 321 322 323 324 326 327 326 327 331 333 337 341 342 340 338 336 335
319 322 319 318 317 318 318 319 322 321 325 326 323 323 323 321 321 320 320 320 319 319 318 319 320 320 319 320 320 320 322 325 327 326 327 329 332 334 335 334 334 330 329 326
319 321 323 320 318 319 320 320 320 320 322 327 328 324 322 322 321 321 321 319 318 318 318 319 318 318 318 318 319 320 321 322 325 326 328 329 329 328 327 327 327 326 327 326
317 321 323 322 319 318 318 319 319 326 328 325 327 329 321 321 320 319 318 317 317 317 317 318 319 318 318 319 319 319 321 321 320 320 323 324 326 325 325 326 327 328 327 327
319 323 324 322 320 319 320 319 319 321 325 328 330 326 320 319 318 317 316 315 317 317 318 318 318 318 317 317 317 317 317 317 320 320 319 319 320 322 324 325 325 327 327 326
315 320 322 323 320 322 322 321 320 321 329 324 324 324 320 319 316 315 315 317 318 317 317 317 317 317 316 315 314 314 314 314 314 315 317 318 319 319 320 321 324 326 325 325
315 319 316 316 315 315 317 317 316 319 321 322 321 320 318 315 315 315 317 317 317 316 315 315 315 316 314 312 312 312 312 312 313 313 312 311 315 316 317 318 319 321 322 324
314 318 316 317 314 314 314 313 313 313 313 316 315 314 314 316 317 317 317 315 316 316 315 314 315 314 313 312 311 310 310 310 311 311 312 311 310 313 315 315 317 318 320 321
316 316 317 316 312 312 313 313 313 313 313 313 315 315 317 317 317 316 316 315 314 314 314 314 314 314 312 311 310 310 309 309 309 309 310 310 310 310 311 313 313 315 317 320
315 315 315 316 313 317 317 316 316 315 314 315 316 317 316 315 315 315 313 313 312 312 313 313 312 311 310 310 309 308 308 309 309 308 309 309 309 309 309 310 312 314 315 317
314 315 318 318 317 315 314 316 317 318 317 315 317 315 315 313 313 313 312 311 311 311 311 309 308 308 307 307 307 307 307 308 308 308 308 308 308 308 309 309 309 311 313 315
313 314 318 318 319 317 318 317 315 315 319 317 314 314 313 312 314 313 312 311 311 310 308 308 308 306 306 306 305 306 307 307 306 306 306 307 308 308 308 308 308 309 310 312
317 317 319 318 320 316 316 315 314 318 320 315 313 312 312 312 312 311 310 310 310 308 307 305 304 304 304 303 304 304 305 305 305 305 305 305 307 307 307 307 307 307 308 309
319 319 318 317 317 317 314 314 316 316 313 312 311 311 311 311 310 309 309 309 309 308 306 305 303 304 303 302 302 304 304 303 304 303 303 303 304 304 304 305 306 306 307 307
317 316 318 317 318 315 314 313 312 311 310 309 309 308 308 308 306 306 308 309 307 306 305 304 303 302 302 301 300 301 301 300 301 300 301 300 301 302 302 303 304 305 305 306
313 313 315 314 314 313 312 311 309 309 308 307 307 307 307 307 307 308 308 307 306 306 306 304 303 302 302 300 300 300 299 299 299 300 300 300 301 301 301 302 302 302 303 304
310 311 312 313 312 311 310 309 309 308 307 307 306 306 307 306 306 308 307 305 305 305 304 303 302 302 300 299 299 299 299 298 298 299 299 300 300 301 301 301 301 303 304 305
310 312 314 314 312 311 310 310 309 308 306 305 306 306 306 307 306 305 304 304 302 302 302 302 300 298 298 298 297 298 297 297 298 298 299 299 299 300 300 301 302 301 301 302

GFSCGP_925_thetae_111.txt.gz
Theta_e
319 318 318 318 319 319 319 319 320 320 319 319 319 319 319 320 321 321 321 321 321 321 322 321 322 323 324 326 329 334 341 349 354 352 353 352 351 350 350 349 349 350 350 351
319 318 318 318 318 318 318 318 319 319 319 319 319 320 320 320 321 321 321 321 322 322 322 322 321 322 322 324 327 330 334 342 348 352 352 351 351 349 349 350 349 348 349 348
319 319 317 317 317 317 318 317 318 318 319 319 319 319 319 320 320 320 321 321 321 321 321 322 322 321 321 322 324 325 328 334 339 347 351 352 351 351 349 349 349 348 346 346
318 317 317 316 316 316 316 317 317 318 319 319 320 320 321 321 321 321 321 320 320 320 321 321 321 321 321 321 321 323 326 329 332 338 343 347 350 348 347 346 346 347 346 345
318 317 316 317 316 316 317 318 318 319 319 320 320 320 320 321 321 321 321 321 321 321 321 321 321 321 321 322 322 322 323 326 330 333 339 341 346 345 345 345 346 348 348 347
317 318 317 317 316 316 317 318 318 319 319 321 321 321 321 322 322 322 322 321 321 321 321 321 321 322 322 322 323 324 325 327 328 331 333 338 345 346 346 346 345 345 347 349
320 319 318 317 318 318 317 319 322 324 324 324 324 324 324 323 322 322 322 322 322 322 322 322 323 323 323 323 323 325 325 327 327 328 330 333 336 343 346 349 345 344 345 346
322 323 320 318 318 319 320 321 323 325 326 325 324 325 325 323 322 322 321 321 323 322 322 323 322 322 322 322 323 323 324 325 327 328 329 329 332 334 336 340 345 344 344 342
321 323 321 321 320 319 319 320 321 323 324 324 324 324 324 324 323 322 321 322 323 322 322 321 321 321 321 321 321 322 322 323 326 328 330 330 331 333 335 336 340 341 344 344
322 325 322 320 319 319 320 321 322 325 329 328 325 325 325 325 324 323 323 322 323 322 321 320 320 319 319 319 320 320 322 322 323 326 329 329 329 331 333 337 339 341 342 343
323 324 326 323 325 323 322 322 324 323 325 332 333 327 325 326 325 324 323 323 322 321 320 319 318 318 318 319 319 320 320 322 322 322 325 329 330 331 331 333 335 338 339 338
320 325 327 324 322 322 323 322 324 332 333 329 330 329 324 325 325 323 323 321 320 318 317 317 318 317 318 318 318 319 320 321 322 323 322 324 325 325 326 327 329 331 332 332
321 325 327 324 323 321 323 323 321 322 324 328 333 329 323 323 322 321 321 319 317 317 318 318 318 318 318 318 317 317 318 318 318 318 322 322 322 323 323 325 327 329 329 328
317 321 322 326 324 325 325 325 323 324 331 329 328 326 323 324 323 323 320 317 317 318 318 317 318 318 316 316 316 316 316 316 316 317 317 319 322 321 320 320 322 325 327 328
317 322 319 319 319 319 319 319 319 320 322 325 323 321 320 320 320 318 318 317 317 317 317 316 316 316 316 315 315 315 314 314 314 315 315 316 317 318 318 317 317 320 323 326
317 320 318 319 317 317 318 317 317 317 318 318 319 319 318 318 317 318 318 317 316 316 315 316 316 315 316 315 314 314 313 313 313 313 313 314 314 316 316 317 317 317 319 321
318 319 322 321 317 316 317 316 316 315 315 315 315 314 318 318 319 318 317 317 316 316 315 315 315 315 314 314 313 313 313 313 312 312 312 312 312 313 314 314 316 315 317 318
317 320 319 320 317 320 316 318 317 317 317 316 315 316 318 318 317 315 315 315 315 315 315 314 314 313 312 311 311 311 311 311 311 311 311 312 311 312 312 313 313 315 314 314
315 317 322 322 320 317 316 316 318 319 319 318 318 317 315 315 314 314 314 315 314 314 313 313 312 311 310 310 310 309 309 308 309 310 310 311 311 311 311 312 313 314 314 316
317 318 320 320 323 318 321 318 316 316 318 318 316 315 315 314 315 315 315 314 312 313 312 312 311 309 308 307 307 307 307 307 307 308 309 310 309 309 309 311 312 313 313 314
320 320 323 321 321 319 319 317 315 319 322 317 315 314 314 314 314 314 312 312 311 311 310 310 309 309 308 307 306 306 306 306 304 304 306 307 307 308 309 310 312 312 312 312
321 321 321 320 324 320 316 315 317 317 315 314 313 312 311 311 310 310 310 310 310 311 311 309 308 307 306 307 306 305 304 304 303 303 304 304 304 304 305 306 307 309 310 312
321 320 322 320 320 318 316 315 314 313 313 311 310 310 310 309 309 309 309 309 310 310 309 307 306 306 307 306 306 306 304 303 302 302 302 302 302 302 303 303 304 306 307 308
313 314 315 316 316 314 313 312 312 311 311 311 310 309 309 308 309 309 309 309 310 308 307 306 305 305 305 305 303 303 303 302 301 301 300 300 301 301 302 302 302 303 304 306
312 312 312 312 313 314 313 312 311 311 311 310 309 308 308 308 308 308 309 308 306 305 305 304 302 301 301 301 302 301 300 300 300 300 301 301 301 301 301 302 303 303 303 303
312 314 316 316 314 314 313 312 311 310 310 308 307 307 307 308 308 307 306 304 305 303 301 300 299 299 298 297 298 298 298 298 298 300 299 300 300 301 301 301 301 301 301 301

GFSCGP_925_thetae_114.txt.gz
Theta_e
318 318 319 319 319 319 320 320 320 321 320 321 320 320 320 321 321 321 322 323 324 324 325 323 322 324 324 325 328 331 341 351 352 356 359 357 357 356 354 352 353 350 354 354
320 319 319 319 319 319 319 319 320 320 321 320 320 320 320 320 321 322 322 324 324 324 324 325 324 323 323 325 327 331 333 341 349 355 354 355 356 354 355 353 351 351 351 354
319 320 319 318 319 319 319 319 319 320 319 320 319 319 320 320 322 322 322 323 324 325 325 327 327 326 324 323 326 326 329 333 337 345 351 352 352 354 353 353 353 351 351 352
320 320 319 317 317 317 318 318 317 317 318 319 320 319 323 322 322 322 322 323 323 324 325 325 326 326 323 321 321 324 327 329 331 335 339 344 350 352 351 352 353 353 351 350
319 319 318 318 318 317 317 317 318 318 318 319 319 319 320 322 321 323 324 323 323 323 323 324 324 324 323 322 322 322 322 327 329 330 333 337 342 344 348 351 349 351 352 351
318 318 318 318 318 317 317 317 318 319 319 321 320 320 321 321 323 323 324 323 323 322 322 324 324 323 323 323 324 325 326 327 329 329 332 333 337 338 344 346 346 348 344 352
318 319 318 318 318 318 317 318 319 321 321 321 320 321 323 324 324 323 323 322 323 324 324 324 324 324 324 323 323 324 325 326 326 329 330 332 333 336 339 340 344 344 345 348
324 324 321 319 319 318 319 320 319 323 324 324 324 327 326 327 325 324 323 325 325 324 324 324 323 323 322 322 323 323 323 324 324 325 329 331 332 334 334 337 339 340 341 344
323 323 322 322 322 320 320 321 320 322 322 325 325 325 327 326 326 324 323 323 324 325 323 322 322 321 321 322 322 322 322 323 323 325 326 330 329 332 334 334 335 337 340 342
323 326 324 323 323 323 321 320 323 323 327 329 326 326 326 330 327 325 325 323 324 325 323 322 321 321 320 319 320 320 322 323 323 323 323 325 329 329 333 331 336 337 340 340
324 325 325 323 324 326 323 322 322 324 325 336 334 329 327 328 329 329 325 324 324 323 322 320 319 318 317 318 318 320 320 321 321 322 323 326 328 328 328 329 329 328 330 336
322 324 325 323 322 322 325 326 326 333 331 329 331 331 327 326 325 327 325 324 323 321 319 318 318 318 319 319 319 319 318 319 319 319 319 319 324 324 326 327 326 326 327 328
323 325 326 323 322 322 322 325 327 328 331 332 335 331 325 325 324 324 324 323 322 319 318 318 318 318 317 318 318 318 318 317 317 318 318 319 319 323 323 322 323 323 323 325
319 322 323 326 323 322 325 324 324 328 333 331 329 326 324 327 325 323 324 322 320 318 318 318 318 317 317 316 317 317 317 316 316 316 316 317 317 320 323 323 321 320 321 322
319 322 320 319 318 319 319 320 321 323 325 328 326 324 323 322 323 322 323 320 319 318 318 317 317 318 318 317 317 316 315 314 315 315 315 315 316 316 319 319 319 320 317 320
319 319 318 320 318 318 319 318 318 318 318 319 319 320 318 319 318 319 319 318 318 317 317 317 318 318 317 316 316 316 315 315 315 315 315 314 314 315 315 318 317 318 318 316
317 319 320 321 318 321 322 319 318 317 317 317 319 318 318 318 320 320 318 317 317 316 316 315 317 317 317 316 315 315 315 314 314 314 313 314 314 314 314 314 317 317 318 317
317 316 318 323 319 324 318 318 318 318 317 317 318 318 318 319 318 317 315 314 315 315 316 315 315 315 314 314 314 313 312 312 312 311 310 311 312 312 313 313 313 317 316 317
315 316 321 323 321 320 318 318 320 321 319 320 320 319 317 316 315 314 315 315 315 315 314 314 313 313 313 314 313 312 311 310 311 310 310 309 309 309 308 310 314 313 317 318
316 316 318 321 326 322 323 319 317 315 317 319 318 317 315 314 315 314 315 313 312 313 312 311 310 311 312 313 312 311 310 309 309 308 307 307 306 306 307 307 308 312 312 315
320 319 319 320 323 320 320 318 316 319 322 318 316 315 313 313 313 314 313 312 312 311 311 310 310 312 312 311 310 310 309 309 308 307 306 306 306 305 306 307 306 306 309 312
321 323 321 322 321 323 318 317 319 318 316 314 313 312 312 311 310 310 311 311 311 311 310 309 310 310 308 308 308 309 309 308 307 306 305 305 304 304 304 305 305 305 307 307
322 318 319 318 322 319 317 318 315 314 314 312 312 311 310 310 310 309 310 311 311 310 309 310 308 308 307 306 305 306 305 305 305 305 305 304 303 303 303 303 303 305 305 305
315 316 319 317 317 317 316 316 314 313 313 313 312 311 310 309 309 309 310 309 309 309 308 306 305 305 304 302 302 301 301 301 302 303 302 302 302 302 302 302 302 303 303 304
312 313 314 315 315 315 315 314 312 312 312 311 309 308 308 308 307 307 308 308 306 306 304 302 301 301 300 299 299 299 298 298 299 300 300 301 301 301 301 301 302 302 302 303
313 315 316 316 315 315 313 311 311 310 310 308 308 308 307 307 307 305 304 305 304 302 300 299 298 297 297 297 297 297 298 298 299 299 299 299 299 300 300 301 302 302 301 302

GFSCGP_925_thetae_117.txt.gz
Theta_e
316 314 315 316 315 315 316 317 317 316 317 317 316 316 316 316 317 319 318 318 318 319 319 320 322 324 326 326 327 328 335 341 354 354 356 354 352 350 347 350 352 351 349 351
317 315 316 318 318 318 317 317 316 318 319 319 318 317 317 318 318 317 317 317 318 318 320 321 323 324 324 326 327 326 328 333 342 351 354 356 356 356 354 352 351 349 351 351
316 318 319 318 317 318 316 317 318 318 318 317 317 317 319 319 319 318 317 317 318 318 318 319 321 323 326 327 327 327 326 326 332 341 347 350 351 353 354 354 355 353 350 351
318 318 319 318 317 316 315 317 318 318 316 315 317 315 317 318 316 316 317 316 317 318 320 320 319 324 326 324 324 329 332 331 331 329 332 338 341 345 348 349 350 350 351 350
319 318 317 317 317 316 316 316 316 316 315 314 315 314 315 316 318 318 317 316 317 317 318 317 318 321 322 323 326 328 329 330 330 330 330 330 330 332 333 336 343 348 348 350
317 317 317 317 317 317 317 316 316 314 314 315 318 318 317 317 317 318 319 318 318 316 317 319 320 322 323 324 325 326 327 327 327 328 328 330 332 332 333 333 334 334 335 338
317 317 316 317 317 317 316 314 313 314 315 316 317 317 317 317 319 319 319 319 319 319 318 318 319 319 322 324 323 324 323 323 323 323 324 326 328 330 331 334 335 336 335 333
321 324 322 321 318 316 316 316 313 316 318 318 320 322 320 323 324 323 323 321 320 319 318 318 317 317 322 323 323 322 323 323 322 322 322 326 327 328 328 330 330 330 335 337
319 323 322 322 322 321 322 317 316 320 320 320 320 321 322 325 324 323 323 322 321 319 318 317 316 318 319 321 323 321 321 323 324 323 323 324 330 330 331 332 332 331 332 336
324 327 323 323 323 323 323 322 322 320 325 325 323 323 326 329 327 326 324 323 322 319 318 316 314 316 317 317 317 320 322 321 321 321 323 324 326 328 328 328 327 327 328 328
323 324 325 322 323 323 323 325 322 319 326 330 331 328 326 327 326 324 322 322 320 318 315 314 313 316 318 318 318 320 319 319 319 319 320 319 320 324 323 325 326 324 325 325
321 323 326 324 320 319 318 321 327 330 327 325 324 325 324 323 323 323 323 322 321 321 319 314 314 316 318 318 318 318 318 318 318 317 318 318 319 321 322 322 322 321 321 321
321 322 323 321 319 320 324 324 322 322 327 331 330 329 324 324 322 322 323 322 321 320 314 314 314 314 315 316 317 317 317 317 316 316 316 316 316 316 317 321 322 322 321 319
320 321 322 321 321 320 322 323 323 323 327 330 329 327 326 327 323 322 320 319 320 320 317 316 314 314 315 315 315 316 317 316 316 315 315 315 314 314 315 315 315 317 319 317
319 319 319 318 317 317 318 318 318 325 323 326 324 326 323 321 322 319 318 318 320 320 317 315 314 312 313 314 315 315 316 315 315 315 315 315 315 314 314 314 314 315 317 317
319 319 317 318 317 317 318 318 317 317 319 321 322 322 319 317 315 318 318 318 318 317 316 315 314 314 313 315 316 316 316 316 315 314 314 314 314 313 313 313 313 313 314 316
319 317 315 317 318 321 323 320 319 318 317 317 317 316 315 318 318 318 316 315 315 314 315 314 313 312 313 313 313 314 314 314 313 312 312 312 312 311 310 310 311 312 313 315
317 317 316 318 318 323 318 318 320 319 321 320 320 318 316 315 315 315 314 312 313 313 312 311 310 310 311 311 311 311 312 312 311 311 311 311 310 309 309 309 309 308 308 312
314 317 317 320 322 320 317 318 321 321 321 319 319 317 316 315 314 313 312 310 309 309 308 308 310 310 309 309 309 310 311 312 311 311 310 310 310 309 308 307 306 307 307 307
315 315 315 318 323 324 322 320 317 315 320 319 317 315 313 311 312 310 309 309 308 308 309 308 309 309 308 309 310 310 311 309 309 309 309 308 308 307 307 307 306 305 306 306
319 317 317 317 318 318 321 319 318 320 319 317 315 313 311 311 310 308 307 307 307 307 308 308 308 307 307 307 306 306 307 307 307 307 307 307 307 306 306 305 305 305 305 305
319 319 319 319 319 323 318 318 320 318 315 314 312 311 310 309 308 307 306 306 306 306 306 306 306 304 304 304 303 303 303 303 304 303 303 304 305 305 305 305 304 303 303 304
319 319 319 316 319 317 318 318 316 312 311 312 311 309 308 307 307 306 305 305 305 305 305 303 302 301 301 300 300 300 300 300 300 300 300 301 301 302 304 303 303 303 303 303
316 316 318 317 317 316 317 312 312 312 312 311 308 306 306 305 305 305 305 304 302 302 301 300 299 298 298 298 297 297 297 298 298 298 298 298 300 301 302 302 302 302 302 302
312 313 315 315 316 315 314 311 311 312 310 307 306 306 305 304 304 303 301 302 301 299 298 297 297 297 296 295 295 295 295 295 296 297 298 298 298 299 300 301 301 301 301 301
313 314 315 314 313 313 311 311 310 307 306 306 305 305 304 302 301 301 300 299 298 297 296 296 296 295 294 294 293 293 293 293 294 295 296 298 299 299 299 299 300 301 301 301

GFSCGP_925_thetae_123.txt.gz
Theta_e
310 312 312 312 310 312 313 313 313 313 313 314 312 312 312 312 312 311 312 312 312 313 315 316 318 321 325 337 338 343 345 345 344 341 341 342 342 340 339 338 338 338 339 339
312 313 313 312 313 314 315 315 314 313 314 313 313 314 312 313 311 311 312 312 312 313 313 314 317 324 335 338 341 342 345 345 344 343 343 344 345 348 349 349 348 346 346 347
312 314 315 314 314 315 314 315 315 315 315 314 314 312 312 313 312 312 312 313 313 312 313 314 317 324 335 340 344 345 345 344 344 346 347 350 350 350 350 348 346 346 343 342
314 314 316 316 316 314 315 314 315 315 314 313 311 311 310 312 313 315 314 312 311 312 312 313 316 321 327 337 341 344 346 349 351 352 351 351 349 347 346 343 337 334 331 330
315 316 316 316 315 314 314 315 314 314 312 311 312 310 310 312 315 313 313 311 311 311 311 311 314 320 322 327 334 338 340 340 341 345 344 343 338 333 330 328 328 328 328 329
315 315 315 315 315 315 314 313 309 308 308 310 310 312 312 314 314 313 313 314 314 310 310 311 313 318 321 324 325 330 334 335 333 331 329 328 327 328 328 326 326 325 325 330
315 314 315 316 317 313 311 308 310 311 310 312 312 313 312 313 316 317 319 316 313 310 310 314 317 319 323 325 328 329 329 328 327 326 326 325 324 322 322 325 325 325 328 329
316 317 318 319 319 320 317 310 309 313 311 310 314 317 315 323 319 318 316 315 314 312 312 315 318 320 322 324 325 327 326 325 324 323 322 322 322 325 327 327 328 330 328 325
317 320 322 322 321 320 319 320 313 313 314 316 315 316 316 322 321 319 317 316 314 312 311 312 311 314 317 320 320 322 322 322 321 321 321 322 326 327 329 330 329 326 324 322
318 323 322 322 321 321 322 319 323 317 323 322 318 319 316 325 323 320 318 313 312 310 310 309 310 312 316 318 319 320 321 321 322 323 324 325 327 327 326 325 323 323 321 320
319 321 323 320 321 320 320 324 324 320 324 325 324 321 323 323 322 321 320 319 316 312 309 309 311 315 317 319 320 320 320 320 321 321 320 319 319 319 321 322 319 319 319 318
320 320 324 323 320 320 318 320 321 325 324 320 320 321 322 323 323 322 321 321 319 315 311 311 312 313 316 317 318 318 318 318 317 317 317 317 317 318 318 317 317 316 316 315
319 318 321 320 316 317 320 320 319 320 320 323 323 324 321 322 322 321 319 319 320 319 318 314 312 313 314 315 316 317 317 317 317 316 317 316 316 316 315 315 315 315 314 314
316 317 317 319 318 317 319 318 317 318 323 323 326 325 323 322 321 321 320 318 316 316 317 314 311 311 312 313 313 313 314 315 315 315 315 315 315 315 314 314 314 314 314 313
313 316 317 316 316 316 316 316 314 317 317 321 318 322 320 317 316 316 318 319 317 316 314 314 311 308 309 311 312 313 313 313 313 314 314 314 314 314 314 314 314 314 314 314
312 314 314 316 315 314 315 315 317 317 316 315 317 318 314 315 315 315 315 313 312 310 309 309 310 310 309 310 311 311 310 310 309 310 312 313 314 314 314 314 313 313 313 313
313 315 313 314 314 314 313 312 312 317 316 315 316 314 314 315 313 309 308 308 308 308 307 307 307 307 307 308 308 308 308 308 308 309 309 309 310 311 312 312 312 312 312 312
312 315 314 317 311 315 310 315 319 321 320 317 316 315 313 310 309 307 306 306 306 306 306 304 303 304 306 306 305 306 306 307 307 307 307 308 308 309 309 309 309 309 310 310
309 313 316 315 314 312 314 319 318 320 321 318 317 315 315 314 309 309 306 306 306 305 304 303 304 304 304 304 304 303 303 302 302 302 303 304 304 304 304 304 305 306 306 306
312 314 315 315 311 316 321 318 318 316 320 315 317 316 310 309 310 308 305 304 304 303 303 302 303 303 302 302 301 300 299 299 299 300 300 300 301 301 302 302 302 303 303 303
317 316 316 315 316 313 316 316 317 321 315 314 309 308 307 307 305 304 303 303 302 302 302 302 301 300 300 299 298 298 298 297 298 298 298 298 298 298 299 299 300 301 301 302
315 318 317 317 318 315 313 316 319 315 315 313 310 306 306 305 304 303 302 301 300 301 300 300 299 298 298 297 297 296 296 297 296 295 295 295 295 295 296 297 298 298 299 299
314 316 317 318 313 313 314 316 314 313 313 312 307 305 304 303 303 301 300 298 299 299 299 298 297 296 295 295 295 295 295 295 294 294 294 294 294 294 295 295 296 297 298 299
311 312 316 313 314 315 312 312 310 311 311 309 305 305 303 301 299 299 299 298 297 297 296 295 294 294 293 293 293 293 292 292 292 292 292 293 293 293 294 295 297 297 297 298
310 309 311 312 314 313 312 310 309 309 305 304 303 301 299 299 299 298 297 296 295 294 293 293 292 292 292 292 291 291 291 291 291 291 292 292 292 293 293 294 295 296 298 298
310 312 314 311 311 309 307 303 303 303 302 302 299 298 297 298 296 296 295 294 292 292 292 291 291 290 290 290 290 290 290 290 291 291 291 291 292 292 293 293 293 294 294 295